Domov               UVHVVR             MKGP            O straneh              
ZDRAVSTVENO VARSTVO RASTLIN
  MREŽA AGROMET. POSTAJ
 ► PROGNOSTIČNA OBVESTILA
AGROMETEOROLOŠKI PODATKI -
ARSO
OBVLADOVANJE TVEGANJ ZARADI
NEUGODNIH VREMENSKIH RAZMER
  ► NARAVNE NESREČE
  ► SUŠA/MOČA
  ► NAMAKANJE
  ► ŽLED (gozdarstvo)
KARTOGRAFSKI PRIKAZI
SPLETNE POVEZAVE
PROJEKTI IN PUBLIKACIJE

AGROMETEOROLOŠKA MREŽA: VREMENSKE POSTAJE IN FENOLOŠKA OPAZOVANJA

Pregled podatkov za lokacijo Artiče, meteorološka postaja 42800

Pregled senzorjev na lokaciji

ID Ime Zadnja
vrednost
Datum
zadnje
spremembe
Tip
senzorja
2446 Temperatura 2 m (°C) 2,4 °C 20.1.2018 11:30 50YA
2447 Relativna vlaga 2 m (% RH) 98,48 % RH 20.1.2018 11:30 50YA
2448 Omočenost lista (U) 0 U 20.1.2018 11:30 A730WET
3778 Padavine (mm) 0 mm 20.1.2018 11:30 Rain-O-Matic

Pregled podatkov zadnjih 24 ur

Zap.
št.
Datum in čas Artiče
Omočenost
lista
Padavine Relativna
vlaga
2
m
Temperatura
2
m
0 20.1.2018 11:30 0 0 98,48 2,4
1 20.1.2018 11:00 0 0 100 1,94
2 20.1.2018 10:30 0 0 100 1,44
3 20.1.2018 10:00 1 0 100 0,54
4 20.1.2018 09:30 9 0 100 -0,03
5 20.1.2018 09:00 8 0 100 -0,49
6 20.1.2018 08:30 4 0 100 -0,57
7 20.1.2018 08:00 1 0 100 -0,67
8 20.1.2018 07:30 1 0 100 -0,79
9 20.1.2018 07:00 1 0 100 -0,9
10 20.1.2018 06:30 1 0 100 -0,92
11 20.1.2018 06:00 0 0 100 -1,4
12 20.1.2018 05:30 0 0 100 -1,79
13 20.1.2018 05:00 0 0 100 -1,01
14 20.1.2018 04:30 0 0 100 -0,85
15 20.1.2018 04:00 3 0 100 -0,73
16 20.1.2018 03:30 9 0 100 -0,52
17 20.1.2018 03:00 6 0 100 -0,02
18 20.1.2018 02:30 3 0 100 0,61
19 20.1.2018 02:00 2 0 100 0,89
20 20.1.2018 01:30 1 0 100 1,18
21 20.1.2018 01:00 1 0 99 1,37
22 20.1.2018 00:30 1 0 96,96 1,4
23 20.1.2018 00:00 2 0 96,75 1,27
24 19.1.2018 23:30 2 0 97,38 1,1
25 19.1.2018 23:00 1 0 97,55 1,05
26 19.1.2018 22:30 1 0 98,84 1,33
27 19.1.2018 22:00 1 0 98,86 1,53
28 19.1.2018 21:30 3 0 96,04 1,53
29 19.1.2018 21:00 9 0 99,91 1,57
30 19.1.2018 20:30 9 0 99,71 2,18
31 19.1.2018 20:00 9 0 99,49 2,36
32 19.1.2018 19:30 7 0 99,8 2,37
33 19.1.2018 19:00 5 0 100 2,3
34 19.1.2018 18:30 3 0 100 2,37
35 19.1.2018 18:00 3 0,2 100 2,43
36 19.1.2018 17:30 2 0 98,17 2,52
37 19.1.2018 17:00 2 0,4 94,01 2,62
38 19.1.2018 16:30 2 1 95,3 2,87
39 19.1.2018 16:00 2 0,4 95,7 3,02
40 19.1.2018 15:30 1 0,8 94,07 3,07
41 19.1.2018 15:00 2 1,6 91,34 3,5
42 19.1.2018 14:30 2 0,8 92 3,88
43 19.1.2018 14:00 3 1,4 93,47 5,41
44 19.1.2018 13:30 4 1 100 6,24
45 19.1.2018 13:00 9 0,4 100 6,44
46 19.1.2018 12:30 9 0,2 100 6,58
© 2011 Ministrstvo za kmetijstvo, gozdarstvo in prehrano. Vse pravice pridržane.